�N����,����,�~����,�C��,���x,�C��,����,���ϕ���,�ő�u�ԕ���,�ő厞����,���˗�,�I�_���x,�n�����x,�ő啗���N��,DTYPE
"21/02/09","00:10",0.0,1.5,92.9,1014.5,305.9,4.9,9.6,323.9,0.00,0.5,5.8,"00:01:48",1
"21/02/09","00:20",0.0,1.3,92.5,1014.0,305.9,4.6,7.8,342.6,0.00,0.3,5.8,"00:19:10",1
"21/02/09","00:30",0.0,1.6,92.4,1014.9,311.1,4.5,5.8,313.1,0.00,0.5,5.7,"00:25:32",1
"21/02/09","00:40",0.0,1.3,91.9,1014.7,293.6,4.2,6.3,306.4,0.00,0.2,5.7,"00:33:48",1
"21/02/09","00:50",0.0,1.8,91.3,1014.9,322.8,5.5,8.7,319.2,0.00,0.6,5.7,"00:44:10",1
"21/02/09","01:00",0.0,1.4,91.0,1014.5,288.7,3.6,5.4,283.9,0.00,0.1,5.7,"00:57:56",1
"21/02/09","01:10",0.0,1.3,90.9,1014.9,296.0,3.1,4.0,327.0,0.00,0.0,5.5,"01:00:52",1
"21/02/09","01:20",0.0,1.3,90.8,1014.7,307.1,3.4,4.0,305.3,0.00,0.0,5.5,"01:15:36",1
"21/02/09","01:30",0.0,1.3,90.6,1014.7,289.7,2.7,4.0,314.5,0.00,0.0,5.3,"01:25:12",1
"21/02/09","01:40",0.0,1.2,90.5,1014.9,281.0,1.7,2.0,277.1,0.00,-0.1,5.6,"01:31:52",1
"21/02/09","01:50",0.0,1.1,90.5,1014.9,315.1,3.0,4.3,315.4,0.00,-0.2,5.6,"01:49:54",1
"21/02/09","02:00",0.0,1.1,90.5,1015.2,306.6,2.7,4.8,316.8,0.00,-0.2,5.6,"01:56:06",1
"21/02/09","02:10",0.0,1.2,90.3,1015.2,289.6,3.5,4.8,286.3,0.00,-0.2,5.4,"02:08:16",1
"21/02/09","02:20",0.0,1.0,90.2,1015.2,294.3,3.2,4.7,308.5,0.00,-0.4,5.5,"02:16:52",1
"21/02/09","02:30",0.0,1.0,90.0,1014.7,294.7,3.5,5.4,308.9,0.00,-0.4,5.5,"02:21:18",1
"21/02/09","02:40",0.0,0.9,89.9,1014.9,296.4,3.6,4.5,288.5,0.00,-0.5,5.4,"02:32:18",1
"21/02/09","02:50",0.0,0.9,89.6,1015.2,298.3,3.1,4.4,310.6,0.00,-0.6,5.5,"02:46:14",1
"21/02/09","03:00",0.0,1.0,89.5,1015.4,299.5,3.6,4.7,311.5,0.00,-0.5,5.4,"02:53:40",1
"21/02/09","03:10",0.0,0.8,89.5,1014.9,304.4,4.1,6.7,330.4,0.00,-0.7,5.3,"03:08:42",1
"21/02/09","03:20",0.0,0.8,89.7,1014.7,302.8,4.2,7.0,322.0,0.00,-0.7,5.2,"03:18:18",1
"21/02/09","03:30",0.0,0.5,90.1,1015.2,322.5,3.4,7.3,332.4,0.00,-0.9,5.1,"03:20:20",1
"21/02/09","03:40",0.0,0.5,90.4,1014.5,317.4,4.2,7.8,341.2,0.00,-0.8,5.3,"03:37:44",1
"21/02/09","03:50",0.0,0.6,90.6,1015.2,314.8,2.8,4.2,348.2,0.00,-0.7,5.2,"03:42:08",1
"21/02/09","04:00",0.0,0.5,90.8,1014.9,308.4,2.5,4.1,296.3,0.00,-0.8,4.9,"03:56:08",1
"21/02/09","04:10",0.0,0.6,90.9,1015.2,309.4,2.6,4.1,336.7,0.00,-0.7,5.1,"04:07:52",1
"21/02/09","04:20",0.0,0.5,91.1,1014.9,317.5,2.6,3.7,317.2,0.00,-0.7,5.0,"04:10:16",1
"21/02/09","04:30",0.0,0.6,91.2,1015.4,311.7,2.8,4.7,266.1,0.00,-0.6,5.1,"04:28:00",1
"21/02/09","04:40",0.0,0.6,91.3,1015.4,308.4,4.0,5.5,320.9,0.00,-0.6,4.9,"04:36:40",1
"21/02/09","04:50",0.0,0.7,91.3,1015.6,305.4,4.1,7.9,326.0,0.00,-0.5,4.9,"04:42:56",1
"21/02/09","05:00",0.0,0.6,91.3,1015.6,304.4,4.4,8.1,345.7,0.00,-0.6,5.0,"04:53:46",1
"21/02/09","05:10",0.0,0.7,91.3,1015.6,293.7,4.0,5.6,311.3,0.00,-0.5,5.1,"05:02:18",1
"21/02/09","05:20",0.0,0.8,91.3,1016.1,301.4,3.9,4.3,310.8,0.00,-0.4,5.1,"05:17:12",1
"21/02/09","05:30",0.0,0.8,91.3,1015.9,293.1,3.2,4.2,319.3,0.00,-0.4,4.9,"05:20:02",1
"21/02/09","05:40",0.0,0.8,91.3,1015.9,293.6,3.5,4.0,287.2,0.00,-0.4,5.1,"05:36:50",1
"21/02/09","05:50",0.0,0.7,91.4,1015.6,301.3,4.0,5.7,327.8,0.00,-0.5,4.9,"05:41:18",1
"21/02/09","06:00",0.0,0.6,91.6,1015.9,298.6,3.6,5.7,320.5,0.00,-0.6,5.0,"05:56:26",1
"21/02/09","06:10",0.0,0.7,91.6,1016.4,311.9,4.0,4.9,334.1,0.00,-0.5,4.8,"06:05:28",1
"21/02/09","06:20",0.0,0.8,91.4,1016.1,292.6,3.6,4.5,297.5,0.00,-0.4,4.7,"06:14:48",1
"21/02/09","06:30",0.0,0.7,91.3,1016.4,296.3,4.1,6.3,331.1,0.00,-0.5,4.9,"06:26:30",1
"21/02/09","06:40",0.0,0.7,91.0,1016.1,305.4,3.5,4.5,318.8,0.00,-0.6,5.1,"06:31:30",1
"21/02/09","06:50",0.0,0.7,90.8,1016.4,308.3,4.0,5.4,341.0,0.00,-0.6,4.8,"06:40:46",1
"21/02/09","07:00",0.0,0.6,90.5,1016.6,309.0,3.4,4.3,329.4,0.00,-0.7,4.8,"06:51:04",1
"21/02/09","07:10",0.0,0.6,90.2,1016.4,311.0,3.4,5.8,326.2,0.00,-0.8,4.9,"07:09:36",1
"21/02/09","07:20",0.0,0.9,90.0,1016.8,314.5,3.9,5.2,338.8,0.00,-0.5,4.8,"07:14:46",1
"21/02/09","07:30",0.0,1.0,90.0,1016.6,291.5,3.7,5.2,300.3,0.00,-0.4,5.0,"07:26:38",1
"21/02/09","07:40",0.0,1.0,89.8,1017.3,286.3,3.5,4.3,293.3,0.00,-0.4,4.7,"07:37:44",1
"21/02/09","07:50",0.0,1.2,89.7,1017.5,288.7,3.9,18.7,211.7,0.01,-0.3,4.8,"07:47:32",1
"21/02/09","08:00",0.0,1.5,89.4,1017.5,294.0,3.4,6.2,308.2,0.05,0.0,4.9,"07:57:04",1
"21/02/09","08:10",0.0,1.6,89.0,1017.8,287.5,3.4,5.0,308.0,0.06,0.0,4.8,"08:03:50",1
"21/02/09","08:20",0.0,1.8,88.4,1018.2,287.0,3.1,5.8,325.6,0.07,0.1,5.1,"08:10:32",1
"21/02/09","08:30",0.0,2.0,88.0,1018.2,283.9,2.7,5.8,314.2,0.11,0.3,4.9,"08:28:16",1
"21/02/09","08:40",0.0,1.9,87.5,1018.2,284.2,2.8,4.3,247.0,0.09,0.1,5.0,"08:35:36",1
"21/02/09","08:50",0.0,2.0,87.3,1019.0,286.6,3.1,5.0,256.7,0.11,0.2,5.1,"08:43:02",1
"21/02/09","09:00",0.0,2.3,86.8,1018.7,294.1,3.6,5.1,318.6,0.14,0.4,5.4,"08:53:32",1
"21/02/09","09:10",0.0,2.4,86.0,1019.0,275.1,3.1,4.4,282.6,0.15,0.3,5.1,"09:01:44",1
"21/02/09","09:20",0.0,2.9,85.2,1019.0,278.1,3.2,4.7,272.9,0.21,0.7,5.4,"09:10:16",1
"21/02/09","09:30",0.0,3.1,84.0,1019.2,280.8,3.6,5.1,295.0,0.22,0.7,5.6,"09:22:56",1
"21/02/09","09:40",0.0,2.6,82.5,1019.4,274.6,3.1,8.2,341.9,0.09,0.0,5.6,"09:36:06",1
"21/02/09","09:50",0.0,2.7,81.6,1019.2,276.8,2.7,5.8,315.5,0.10,-0.1,5.3,"09:42:00",1
"21/02/09","10:00",0.0,2.9,81.4,1019.4,274.8,2.6,4.3,330.2,0.18,0.1,5.5,"09:57:06",1
"21/02/09","10:10",0.0,3.7,80.8,1019.0,291.7,2.1,4.0,339.0,0.28,0.8,6.0,"10:08:42",1
"21/02/09","10:20",0.0,4.0,78.8,1019.2,277.6,2.6,4.2,312.9,0.34,0.7,6.1,"10:17:48",1
"21/02/09","10:30",0.0,4.2,76.5,1019.4,296.1,3.5,4.8,312.2,0.32,0.5,6.0,"10:20:42",1
"21/02/09","10:40",0.0,4.4,74.1,1019.2,300.2,4.5,8.5,314.6,0.33,0.2,6.2,"10:34:14",1
"21/02/09","10:50",0.0,4.8,73.6,1019.4,282.2,3.1,5.0,304.1,0.43,0.5,6.6,"10:42:24",1
"21/02/09","11:00",0.0,5.0,73.1,1019.4,290.9,3.5,6.4,323.6,0.43,0.6,6.8,"10:58:26",1
"21/02/09","11:10",0.0,5.2,72.1,1019.7,278.9,3.6,6.4,335.9,0.50,0.6,7.0,"11:07:18",1
"21/02/09","11:20",0.0,5.4,71.5,1019.7,281.7,3.4,5.2,312.8,0.51,0.7,7.2,"11:12:54",1
"21/02/09","11:30",0.0,5.3,71.1,1019.7,278.3,3.1,5.2,304.9,0.48,0.5,7.2,"11:20:36",1
"21/02/09","11:40",0.0,5.4,69.8,1019.4,271.9,2.8,4.8,295.6,0.36,0.4,7.3,"11:33:30",1
"21/02/09","11:50",0.0,5.1,70.2,1019.0,285.7,2.6,6.0,327.7,0.24,0.2,7.5,"11:49:48",1
"21/02/09","12:00",0.0,5.2,70.0,1019.2,312.4,4.4,7.7,326.4,0.45,0.2,7.7,"11:59:34",1
"21/02/09","12:10",0.0,6.3,70.5,1019.0,298.2,3.6,7.0,326.7,0.54,1.4,8.0,"12:00:34",1
"21/02/09","12:20",0.0,5.5,68.8,1019.0,300.1,3.9,7.4,324.0,0.36,0.3,8.2,"12:13:40",1
"21/02/09","12:30",0.0,6.1,68.2,1018.7,309.0,3.9,7.9,343.7,0.48,0.7,8.2,"12:22:26",1
"21/02/09","12:40",0.0,6.4,67.0,1019.0,287.2,3.9,5.8,320.5,0.47,0.8,8.3,"12:31:54",1
"21/02/09","12:50",0.0,5.7,67.8,1018.7,284.3,3.5,5.2,263.4,0.39,0.3,8.5,"12:41:06",1
"21/02/09","13:00",0.0,5.5,68.2,1018.7,290.4,3.4,5.8,330.8,0.32,0.2,8.5,"12:54:58",1
"21/02/09","13:10",0.0,5.3,69.9,1018.5,310.1,3.4,5.4,313.2,0.28,0.3,8.6,"13:03:26",1
"21/02/09","13:20",0.0,5.2,71.8,1018.5,330.2,4.2,6.7,337.5,0.34,0.6,8.6,"13:16:36",1
"21/02/09","13:30",0.0,5.2,71.5,1018.2,292.8,3.2,4.9,332.1,0.24,0.5,8.7,"13:20:48",1
"21/02/09","13:40",0.0,5.5,72.4,1018.5,291.4,3.1,4.5,299.6,0.26,1.0,8.7,"13:32:50",1
"21/02/09","13:50",0.0,5.3,71.9,1018.0,302.4,3.4,7.1,342.1,0.25,0.7,8.7,"13:47:08",1
"21/02/09","14:00",0.0,5.3,73.2,1018.0,294.7,2.5,3.2,263.9,0.27,0.9,8.8,"13:59:54",1
"21/02/09","14:10",0.0,5.1,73.7,1017.8,299.2,3.4,7.1,332.1,0.28,0.8,8.7,"14:09:38",1
"21/02/09","14:20",0.0,5.4,73.0,1017.8,306.2,3.5,6.4,332.8,0.33,1.0,8.7,"14:19:06",1
"21/02/09","14:30",0.0,5.0,72.6,1017.8,312.6,4.9,8.9,346.4,0.15,0.5,8.6,"14:21:10",1
"21/02/09","14:40",0.0,4.9,72.5,1018.0,302.8,4.1,6.0,327.7,0.11,0.4,8.7,"14:33:20",1
"21/02/09","14:50",0.0,4.7,73.5,1017.5,302.5,3.9,6.0,340.1,0.10,0.4,8.8,"14:43:04",1
"21/02/09","15:00",0.0,4.6,74.5,1018.0,306.8,3.5,7.1,323.0,0.07,0.5,8.4,"14:52:00",1
"21/02/09","15:10",0.0,4.6,75.1,1018.0,300.3,3.0,4.7,337.0,0.06,0.6,8.5,"15:09:52",1
"21/02/09","15:20",0.0,4.3,76.2,1018.0,319.5,3.6,6.2,312.0,0.06,0.5,8.3,"15:10:48",1
"21/02/09","15:30",0.0,4.4,77.4,1018.0,302.9,2.8,4.7,323.9,0.09,0.8,8.1,"15:23:12",1
"21/02/09","15:40",0.0,4.8,78.3,1017.8,320.8,3.6,6.6,331.8,0.16,1.4,8.3,"15:36:56",1
"21/02/09","15:50",0.0,5.3,76.9,1017.8,315.1,3.9,6.7,316.0,0.18,1.6,8.4,"15:48:48",1
"21/02/09","16:00",0.0,4.6,76.1,1018.0,292.0,3.7,7.2,326.2,0.02,0.8,7.9,"15:55:48",1
"21/02/09","16:10",0.0,4.6,75.7,1018.0,310.4,3.4,6.7,317.2,0.03,0.7,8.0,"16:09:12",1
"21/02/09","16:20",0.0,4.8,75.5,1017.8,306.2,3.0,6.2,323.6,0.06,0.9,8.1,"16:14:32",1
"21/02/09","16:30",0.0,5.0,74.8,1018.0,311.1,2.6,5.4,313.2,0.07,0.9,8.0,"16:25:52",1
"21/02/09","16:40",0.0,5.0,74.4,1017.5,293.1,3.0,5.7,302.9,0.05,0.9,7.9,"16:35:00",1
"21/02/09","16:50",0.0,5.0,74.5,1017.5,311.0,2.7,4.2,323.7,0.03,0.9,8.0,"16:40:16",1
"21/02/09","17:00",0.0,4.8,74.7,1017.8,301.0,2.8,4.4,340.5,0.02,0.7,7.8,"16:58:24",1
"21/02/09","17:10",0.0,4.7,75.2,1018.0,302.9,3.0,4.3,336.2,0.02,0.7,7.7,"17:01:52",1
"21/02/09","17:20",0.0,4.5,75.7,1018.0,301.1,3.1,5.0,335.5,0.00,0.6,7.7,"17:12:00",1
"21/02/09","17:30",0.0,4.5,76.2,1018.0,281.0,2.5,3.4,300.9,0.00,0.7,7.7,"17:23:44",1
"21/02/09","17:40",0.0,4.4,76.7,1018.0,300.9,2.6,3.9,316.3,0.00,0.7,7.3,"17:39:04",1
"21/02/09","17:50",0.0,4.2,77.2,1018.0,313.0,3.4,4.4,335.9,0.00,0.6,7.6,"17:40:16",1
"21/02/09","18:00",0.0,4.1,77.7,1018.0,303.3,3.0,5.2,336.7,0.00,0.6,7.4,"17:58:40",1
"21/02/09","18:10",0.0,4.1,78.3,1018.0,287.7,3.0,5.9,322.6,0.00,0.7,7.2,"18:06:00",1
"21/02/09","18:20",0.0,4.0,78.8,1018.0,293.3,2.8,4.3,314.2,0.00,0.7,7.3,"18:17:20",1
"21/02/09","18:30",0.0,4.0,79.2,1018.2,305.2,3.0,4.4,303.8,0.00,0.8,7.2,"18:25:52",1
"21/02/09","18:40",0.0,4.0,79.6,1018.2,316.1,2.8,4.1,319.1,0.00,0.8,7.2,"18:34:16",1
"21/02/09","18:50",0.0,4.0,79.9,1018.5,301.2,3.1,6.0,322.2,0.00,0.9,7.2,"18:44:00",1
"21/02/09","19:00",0.0,3.9,80.2,1018.5,302.6,3.4,5.9,335.1,0.00,0.8,7.0,"18:53:04",1
"21/02/09","19:10",0.0,3.9,80.5,1018.5,293.6,3.0,4.3,315.4,0.00,0.9,7.0,"19:04:56",1
"21/02/09","19:20",0.0,3.9,80.6,1018.2,297.7,3.0,5.0,332.3,0.00,0.9,6.9,"19:15:20",1
"21/02/09","19:30",0.0,3.9,80.8,1018.7,286.0,2.3,3.6,272.0,0.00,0.9,6.8,"19:29:36",1
"21/02/09","19:40",0.0,3.9,81.0,1018.7,275.5,2.3,4.4,330.5,0.00,1.0,7.0,"19:31:36",1
"21/02/09","19:50",0.0,4.0,81.2,1018.7,272.7,2.1,3.4,265.1,0.00,1.1,6.7,"19:49:36",1
"21/02/09","20:00",0.0,4.0,81.3,1018.7,278.0,2.2,4.3,311.6,0.00,1.1,6.9,"19:58:16",1
"21/02/09","20:10",0.0,4.0,81.4,1018.7,285.4,2.5,3.6,303.2,0.00,1.1,6.7,"20:07:52",1
"21/02/09","20:20",0.0,4.0,81.5,1019.0,289.3,2.2,3.4,312.4,0.00,1.2,6.7,"20:15:44",1
"21/02/09","20:30",0.0,4.0,81.7,1019.0,285.2,2.3,4.2,318.2,0.00,1.2,6.7,"20:28:48",1
"21/02/09","20:40",0.0,3.9,81.8,1019.4,280.1,2.2,3.3,291.1,0.00,1.1,6.7,"20:34:56",1
"21/02/09","20:50",0.0,3.9,81.9,1019.0,289.7,2.5,4.2,308.1,0.00,1.1,6.7,"20:40:48",1
"21/02/09","21:00",0.0,3.9,82.0,1019.2,273.1,1.7,2.7,292.1,0.00,1.2,6.8,"20:59:28",1
"21/02/09","21:10",0.0,3.9,82.1,1019.2,270.2,1.7,2.8,295.9,0.00,1.2,6.7,"21:03:28",1
"21/02/09","21:20",0.0,3.9,82.1,1019.0,266.5,2.0,3.3,261.7,0.00,1.2,6.6,"21:13:36",1
"21/02/09","21:30",0.0,3.8,82.2,1019.0,296.0,2.1,3.3,312.4,0.00,1.1,6.5,"21:24:48",1
"21/02/09","21:40",0.0,3.7,82.5,1019.2,292.8,1.7,2.9,330.8,0.00,1.0,6.6,"21:34:16",1
"21/02/09","21:50",0.0,3.6,83.0,1019.0,327.7,1.6,2.1,336.2,0.00,1.0,6.6,"21:42:48",1
"21/02/09","22:00",0.0,3.5,83.5,1019.0,326.2,1.8,2.8,330.5,0.00,1.0,6.6,"21:56:24",1
"21/02/09","22:10",0.0,3.4,84.0,1018.7,322.1,2.0,2.7,333.1,0.00,1.0,6.6,"22:06:16",1
"21/02/09","22:20",0.0,3.4,84.5,1018.7,321.0,2.7,3.5,317.7,0.00,1.1,6.3,"22:10:48",1
"21/02/09","22:30",0.0,3.3,84.8,1018.7,316.5,2.7,3.3,327.1,0.00,1.0,6.4,"22:22:32",1
"21/02/09","22:40",0.0,3.3,85.1,1018.7,324.5,2.1,2.9,325.2,0.00,1.1,6.4,"22:32:56",1
"21/02/09","22:50",0.0,3.3,85.5,1019.0,326.0,2.1,3.6,337.0,0.00,1.1,6.5,"22:43:20",1
"21/02/09","23:00",0.0,3.3,85.7,1019.0,328.5,2.3,4.4,332.0,0.00,1.2,6.5,"22:58:24",1
"21/02/09","23:10",0.0,3.3,85.9,1018.7,324.5,2.8,4.3,317.9,0.00,1.2,6.5,"23:04:24",1
"21/02/09","23:20",0.0,3.3,86.0,1019.0,327.9,3.1,4.2,323.4,0.00,1.2,6.4,"23:10:02",1
"21/02/09","23:30",0.0,3.4,86.1,1018.7,317.7,2.8,3.7,321.5,0.00,1.3,6.4,"23:20:24",1
"21/02/09","23:40",0.0,3.4,86.1,1018.7,321.9,2.8,4.1,317.3,0.00,1.3,6.4,"23:36:24",1
"21/02/09","23:50",0.0,3.3,86.2,1018.7,323.0,2.2,3.5,320.6,0.00,1.3,6.3,"23:44:16",1
"21/02/09","24:00",0.0,3.2,86.4,1018.5,326.2,2.1,3.5,329.2,0.00,1.2,6.3,"23:52:32",1
